Regional Weather Roundup
Issued by NWS

Home | Current Version | Previous Version | Graphics & Text | Print | Product List | Glossary On
Versions: 1 2 3 4 5 6 7 8 9 10 11 12 13 14 15 16 17 18 19 20 21 22 23 24 25 26 27 28 29 30 31 32 33 34 35 36 37 38 39 40 41 42 43 44 45 46 47 48 49 50
000
ASUS43 KLSX 300559
RWRMO

WEATHER SUMMARY FOR MISSOURI
NATIONAL WEATHER SERVICE SPRINGFIELD MO
100 AM CDT WED JUL 30 2014

NOTE: "FAIR" INDICATES FEW OR NO CLOUDS BELOW 12,000 FEET WITH NO
       SIGNIFICANT WEATHER AND/OR OBSTRUCTIONS TO VISIBILITY.
       CURRENT SKY AND/OR WEATHER CONDITIONS ARE NOT AVAILABLE FOR
       CHILLICOTHE AND FARMINGTON.

MOZ001>031-035>038-043-044-053-054-300700-
...NORTHERN AND WESTERN MISSOURI...

CITY           SKY/WX    TMP DP  RH WIND       PRES   REMARKS
KANSAS CTY INT PTCLDY    68  59  73 NE5       30.11F
6HR MIN TEMP:  67; 6HR MAX TEMP:  80;

KANSAS C DTWN  PTCLDY    72  58  61 NE3       30.10S
6HR MIN TEMP:  71; 6HR MAX TEMP:  81;

LEE`S SUMMIT   PTCLDY    67  58  72 CALM      30.12R
6HR MIN TEMP:  65; 6HR MAX TEMP:  80;

ST JOSEPH      CLEAR     61  59  93 N3        30.12S
6HR MIN TEMP:  60; 6HR MAX TEMP:  79;

CHILLICOTHE      N/A     62  58  86 CALM      30.12S
6HR MIN TEMP:  62; 6HR MAX TEMP:  77;

KIRKSVILLE     MOCLDY    59  57  93 CALM      30.12S
6HR MIN TEMP:  58; 6HR MAX TEMP:  78;


$$
MOZ066>068-077>081-088>096-101>105-300700-
...SOUTHWEST MISSOURI...

CITY           SKY/WX    TMP DP  RH WIND       PRES   REMARKS
SPRINGFIELD    CLOUDY    71  60  68 CALM      30.10S
6HR MIN TEMP:  69; 6HR MAX TEMP:  81;

JOPLIN         CLOUDY    67  62  84 CALM      30.10F
6HR MIN TEMP:  65; 6HR MAX TEMP:  80;


$$
MOZ032>034-039>042-045>050-055>058-069>072-300700-
...CENTRAL MISSOURI...

CITY           SKY/WX    TMP DP  RH WIND       PRES   REMARKS
COLUMBIA       MOCLDY    68  56  65 SE5       30.11S
6HR MIN TEMP:  63; 6HR MAX TEMP:  80;

JEFFERSON CITY CLEAR     64  57  78 CALM      30.10S
6HR MIN TEMP:  63; 6HR MAX TEMP:  81;

ROLLA          MOCLDY    67  54  63 E3        30.10S
6HR MIN TEMP:  65; 6HR MAX TEMP:  80;

SEDALIA        CLEAR     65  57  75 CALM      30.11S
6HR MIN TEMP:  63; 6HR MAX TEMP:  78;

WHITEMAN AFB   CLEAR     62  50  64 CALM      30.09F
OSAGE BEACH    CLEAR     63  55  77 CALM      30.10F

$$
MOZ051-052-059>065-300700-
...EAST CENTRAL MISSOURI...

CITY           SKY/WX    TMP DP  RH WIND       PRES   REMARKS
ST LOUIS INTL  PTCLDY    68  57  68 CALM      30.11R
6HR MIN TEMP:  67; 6HR MAX TEMP:  78;

SPIRIT OF STL  CLOUDY    62  58  86 CALM      30.10R
6HR MIN TEMP:  60; 6HR MAX TEMP:  78;

ST CHARLES     CLEAR     60  57  89 CALM      30.10R
6HR MIN TEMP:  59; 6HR MAX TEMP:  77;


$$
MOZ072>076-082>087-097>100-106>115-300700-
...SOUTH CENTRAL AND SOUTHEAST MISSOURI...

CITY           SKY/WX    TMP DP  RH WIND       PRES   REMARKS
CAPE GIRARDEAU CLEAR     61  57  87 W3        30.10F
6HR MIN TEMP:  60; 6HR MAX TEMP:  75;

FARMINGTON     PTCLDY    63  55  77 CALM      30.14S
6HR MIN TEMP:  61; 6HR MAX TEMP:  77;

POPLAR BLUFF   CLEAR     61  57  87 CALM      30.10S
6HR MIN TEMP:  61; 6HR MAX TEMP:  76;

WEST PLAINS    MOCLDY    66  58  75 SE3       30.13S
6HR MIN TEMP:  65; 6HR MAX TEMP:  80;


$$


USA.gov is the U.S. government's official web portal to all federal, state and local government web resources and services.